081  
NZUS99 KDVN 251210  
HRRRRR  
HOURLY WEATHER ROUNDUP  
NATIONAL WEATHER SERVICE QUAD CITIES IA IL  
700 AM CDT TUE JUL 25 2017  
 
NOTE: "FAIR" INDICATES FEW OR NO CLOUDS BELOW 12,000 FEET WITH  
NO SIGNIFICANT WEATHER AND/OR OBSTRUCTIONS TO VISIBILITY.  
------------------------------------------------------------------  
 
CITY SKY/WX TMP DP RH WIND PRES REMARKS  
BURLINGTON SUNNY 65 62 90 E6 30.13R  
6HR MIN TEMP: 64; 6HR MAX TEMP: 68;  
 
CEDAR RAPIDS NOT AVBL  
DAVENPORT SUNNY 62 60 93 SE7 30.16R  
6HR MIN TEMP: 59; 6HR MAX TEMP: 63;  
 
DUBUQUE SUNNY 60 59 96 S9 30.16R FOG  
6HR MIN TEMP: 59; 6HR MAX TEMP: 64;  
 
IOWA CITY NOT AVBL  
MOLINE SUNNY 62 59 90 E3 30.14R  
6HR MIN TEMP: 59; 6HR MAX TEMP: 64;  
 
------------------------------------------------------------------  
THE STATIONS BELOW ARE NOT NWS STATIONS AND ARE NOT SUBJECT TO NWS  
QUALITY CONTROL. SOME STATIONS DO NOT REPORT WEATHER SUCH AS FOG.  
* - STATIONS THAT REPORT TMP AND DP IN WHOLE DEGREES CELSIUS, WHICH  
ARE THEN CONVERTED TO FAHRENHEIT.  
------------------------------------------------------------------  
 
CITY SKY/WX TMP DP RH WIND PRES REMARKS  
CLINTON NOT AVBL  
FAIRFIELD * SUNNY 64 61 88 SE6 30.12R  
FORT MADISON * SUNNY 64 63 94 E7 30.13S  
FREEPORT FOG 55 55 100 CALM 30.19R VSB 1/2  
6HR MIN TEMP: 52; 6HR MAX TEMP: 58;  
 
INDEPENDENCE * SUNNY 62 60 94 SE8 30.14R FOG  
KEOKUK * SUNNY 66 63 88 SE9 30.11F  
MACOMB SUNNY 60 60 100 CALM 30.16S FOG  
6HR MIN TEMP: 58; 6HR MAX TEMP: 62;  
 
MONTICELLO * SUNNY 63 59 88 SE7 30.14R  
MT PLEASANT SUNNY 64 63 96 SE7 30.13R  
6HR MIN TEMP: 62; 6HR MAX TEMP: 64;  
 
MUSCATINE * SUNNY 64 61 88 SE6 30.13S  
SAVANNA SUNNY 60 58 96 NE5 30.15S FOG  
6HR MIN TEMP: 56; 6HR MAX TEMP: 61;  
 
STERLING/R.F. SUNNY 59 58 96 E5 30.16S  
6HR MIN TEMP: 57; 6HR MAX TEMP: 60;  
 
VINTON * SUNNY 64 62 91 CALM 30.14R  
6HR MIN TEMP: 62; 6HR MAX TEMP: 64;  
 
WASHINGTON * SUNNY 63 63 100 VRB3 30.14R FOG  
------------------------------------------------------------------  
 
 
CLICK HERE TO GO TO PREVIOUS BULLETINS.

The Nexlab IL Page
The Nexlab IA Page
The Nexlab MO Page Main Text Page